Location: Arrington
(35.8681°N, 86.7092°W)
Time: 15:50:26
(UTC+00:00)

Cosmos 2233 Rocket - Pass Details

Date: 23 November 2019
Orbit: 954 x 990 km, 82.9° (Epoch: 06 December)

Event Time Altitude Azimuth Distance (km) Brightness Sun altitude
Rises 11:18:41 0° 195° (SSW) 3,666 7.0 -14.6°
Reaches altitude 10° 11:21:13 10° 199° (SSW) 2,726 6.3 -14.1°
Maximum altitude 11:27:23 60° 279° (W) 1,125 4.0 -12.9°
Drops below altitude 10° 11:33:38 10° 358° (N) 2,756 6.2 -11.7°
Sets 11:36:13 0° 3° (N) 3,710 6.9 -11.2°
